owner,sensor,date,latitude,longitude,sea_surface_height_above_sea_level,qcFlag 
TCOON,ioos:station:TCOON:518:1,2016-08-01T00:18:00Z,29.5150,-94.5133,1.381,1111122 
TCOON,ioos:station:TCOON:518:1,2016-08-01T01:18:00Z,29.5150,-94.5133,1.296,1111122 
TCOON,ioos:station:TCOON:518:1,2016-08-01T02:18:00Z,29.5150,-94.5133,1.222,1111122 
TCOON,ioos:station:TCOON:518:1,2016-08-01T03:18:00Z,29.5150,-94.5133,1.172,1111122 
TCOON,ioos:station:TCOON:518:1,2016-08-01T04:18:00Z,29.5150,-94.5133,1.137,1111122 
TCOON,ioos:station:TCOON:518:1,2016-08-01T05:18:00Z,29.5150,-94.5133,1.094,1111122 
TCOON,ioos:station:TCOON:518:1,2016-08-01T06:18:00Z,29.5150,-94.5133,1.102,1111122 
TCOON,ioos:station:TCOON:518:1,2016-08-01T07:18:00Z,29.5150,-94.5133,1.151,1111122 
TCOON,ioos:station:TCOON:518:1,2016-08-01T08:18:00Z,29.5150,-94.5133,1.238,1111122 
TCOON,ioos:station:TCOON:518:1,2016-08-01T09:18:00Z,29.5150,-94.5133,1.343,1111122 
TCOON,ioos:station:TCOON:518:1,2016-08-01T10:18:00Z,29.5150,-94.5133,1.432,1111122 
TCOON,ioos:station:TCOON:518:1,2016-08-01T11:12:00Z,29.5150,-94.5133,1.499,1111122 
TCOON,ioos:station:TCOON:518:1,2016-08-01T12:18:00Z,29.5150,-94.5133,1.559,1111122 
TCOON,ioos:station:TCOON:518:1,2016-08-01T13:18:00Z,29.5150,-94.5133,1.591,1111122 
TCOON,ioos:station:TCOON:518:1,2016-08-01T14:18:00Z,29.5150,-94.5133,1.604,1111122 
TCOON,ioos:station:TCOON:518:1,2016-08-01T15:18:00Z,29.5150,-94.5133,1.583,1111122 
TCOON,ioos:station:TCOON:518:1,2016-08-01T16:18:00Z,29.5150,-94.5133,1.561,1111122 
TCOON,ioos:station:TCOON:518:1,2016-08-01T17:18:00Z,29.5150,-94.5133,1.547,1111122 
TCOON,ioos:station:TCOON:518:1,2016-08-01T18:18:00Z,29.5150,-94.5133,1.547,1111122 
TCOON,ioos:station:TCOON:518:1,2016-08-01T19:24:00Z,29.5150,-94.5133,1.546,1111122 
TCOON,ioos:station:TCOON:518:1,2016-08-01T20:18:00Z,29.5150,-94.5133,1.521,1111122 
TCOON,ioos:station:TCOON:518:1,2016-08-01T21:18:00Z,29.5150,-94.5133,1.505,1111122 
TCOON,ioos:station:TCOON:518:1,2016-08-01T22:18:00Z,29.5150,-94.5133,1.473,1111122 
TCOON,ioos:station:TCOON:518:1,2016-08-01T23:18:00Z,29.5150,-94.5133,1.455,1111122 
TCOON,ioos:station:TCOON:518:1,2016-08-02T00:18:00Z,29.5150,-94.5133,1.418,1111122 
TCOON,ioos:station:TCOON:518:1,2016-08-02T01:18:00Z,29.5150,-94.5133,1.358,1111122 
TCOON,ioos:station:TCOON:518:1,2016-08-02T02:18:00Z,29.5150,-94.5133,1.293,1111122 
TCOON,ioos:station:TCOON:518:1,2016-08-02T03:18:00Z,29.5150,-94.5133,1.228,1111122 
TCOON,ioos:station:TCOON:518:1,2016-08-02T04:18:00Z,29.5150,-94.5133,1.182,1111122 
TCOON,ioos:station:TCOON:518:1,2016-08-02T05:18:00Z,29.5150,-94.5133,1.138,1111122 
TCOON,ioos:station:TCOON:518:1,2016-08-02T06:18:00Z,29.5150,-94.5133,1.088,1111122 
TCOON,ioos:station:TCOON:518:1,2016-08-02T07:18:00Z,29.5150,-94.5133,1.15,1111122 
TCOON,ioos:station:TCOON:518:1,2016-08-02T08:18:00Z,29.5150,-94.5133,1.201,1111122 
TCOON,ioos:station:TCOON:518:1,2016-08-02T09:18:00Z,29.5150,-94.5133,1.307,1111122 
TCOON,ioos:station:TCOON:518:1,2016-08-02T10:18:00Z,29.5150,-94.5133,1.413,1111122 
TCOON,ioos:station:TCOON:518:1,2016-08-02T11:18:00Z,29.5150,-94.5133,1.484,1111122 
TCOON,ioos:station:TCOON:518:1,2016-08-02T12:18:00Z,29.5150,-94.5133,1.527,1111122 
TCOON,ioos:station:TCOON:518:1,2016-08-02T13:18:00Z,29.5150,-94.5133,1.572,1111122 
TCOON,ioos:station:TCOON:518:1,2016-08-02T14:18:00Z,29.5150,-94.5133,1.57,1111122 
TCOON,ioos:station:TCOON:518:1,2016-08-02T15:18:00Z,29.5150,-94.5133,1.581,1111122 
TCOON,ioos:station:TCOON:518:1,2016-08-02T16:18:00Z,29.5150,-94.5133,1.591,1111122 
TCOON,ioos:station:TCOON:518:1,2016-08-02T17:18:00Z,29.5150,-94.5133,1.587,1111122 
TCOON,ioos:station:TCOON:518:1,2016-08-02T18:18:00Z,29.5150,-94.5133,1.591,1111122 
TCOON,ioos:station:TCOON:518:1,2016-08-02T19:18:00Z,29.5150,-94.5133,1.566,1111122 
TCOON,ioos:station:TCOON:518:1,2016-08-02T20:18:00Z,29.5150,-94.5133,1.556,1111122 
TCOON,ioos:station:TCOON:518:1,2016-08-02T21:18:00Z,29.5150,-94.5133,1.548,1111122 
TCOON,ioos:station:TCOON:518:1,2016-08-02T22:18:00Z,29.5150,-94.5133,1.549,1111122 
TCOON,ioos:station:TCOON:518:1,2016-08-02T23:18:00Z,29.5150,-94.5133,1.562,1111122 
TCOON,ioos:station:TCOON:518:1,2016-08-03T00:18:00Z,29.5150,-94.5133,1.553,1111122 
TCOON,ioos:station:TCOON:518:1,2016-08-03T01:18:00Z,29.5150,-94.5133,1.5,1111122 
TCOON,ioos:station:TCOON:518:1,2016-08-03T02:18:00Z,29.5150,-94.5133,1.419,1111122 
TCOON,ioos:station:TCOON:518:1,2016-08-03T03:18:00Z,29.5150,-94.5133,1.339,1111122 
TCOON,ioos:station:TCOON:518:1,2016-08-03T04:18:00Z,29.5150,-94.5133,1.323,1111122 
TCOON,ioos:station:TCOON:518:1,2016-08-03T05:18:00Z,29.5150,-94.5133,1.265,1111122 
TCOON,ioos:station:TCOON:518:1,2016-08-03T06:18:00Z,29.5150,-94.5133,1.258,1111122 
TCOON,ioos:station:TCOON:518:1,2016-08-03T07:18:00Z,29.5150,-94.5133,1.241,1111122 
TCOON,ioos:station:TCOON:518:1,2016-08-03T08:18:00Z,29.5150,-94.5133,1.263,1111122 
TCOON,ioos:station:TCOON:518:1,2016-08-03T09:18:00Z,29.5150,-94.5133,1.327,1111122 
TCOON,ioos:station:TCOON:518:1,2016-08-03T10:18:00Z,29.5150,-94.5133,1.414,1111122 
TCOON,ioos:station:TCOON:518:1,2016-08-03T11:18:00Z,29.5150,-94.5133,1.473,1111122 
TCOON,ioos:station:TCOON:518:1,2016-08-03T12:18:00Z,29.5150,-94.5133,1.564,1111122 
TCOON,ioos:station:TCOON:518:1,2016-08-03T13:18:00Z,29.5150,-94.5133,1.597,1111122 
TCOON,ioos:station:TCOON:518:1,2016-08-03T14:18:00Z,29.5150,-94.5133,1.595,1111122 
TCOON,ioos:station:TCOON:518:1,2016-08-03T15:18:00Z,29.5150,-94.5133,1.597,1111122 
TCOON,ioos:station:TCOON:518:1,2016-08-03T16:18:00Z,29.5150,-94.5133,1.612,1111122 
TCOON,ioos:station:TCOON:518:1,2016-08-03T17:18:00Z,29.5150,-94.5133,1.626,1111122 
TCOON,ioos:station:TCOON:518:1,2016-08-03T18:18:00Z,29.5150,-94.5133,1.626,1111122 
TCOON,ioos:station:TCOON:518:1,2016-08-03T19:18:00Z,29.5150,-94.5133,1.611,1111122 
TCOON,ioos:station:TCOON:518:1,2016-08-05T20:18:00Z,29.5150,-94.5133,1.568,1111122 
TCOON,ioos:station:TCOON:518:1,2016-08-05T21:18:00Z,29.5150,-94.5133,1.552,1111122 
TCOON,ioos:station:TCOON:518:1,2016-08-05T22:18:00Z,29.5150,-94.5133,1.566,1111122 
TCOON,ioos:station:TCOON:518:1,2016-08-05T23:18:00Z,29.5150,-94.5133,1.566,1111122 
TCOON,ioos:station:TCOON:518:1,2016-08-06T00:18:00Z,29.5150,-94.5133,1.594,1111122 
TCOON,ioos:station:TCOON:518:1,2016-08-06T01:18:00Z,29.5150,-94.5133,1.61,1111122 
TCOON,ioos:station:TCOON:518:1,2016-08-06T02:18:00Z,29.5150,-94.5133,1.6,1111122 
TCOON,ioos:station:TCOON:518:1,2016-08-06T03:18:00Z,29.5150,-94.5133,1.59,1111122 
TCOON,ioos:station:TCOON:518:1,2016-08-06T04:18:00Z,29.5150,-94.5133,1.544,1111122 
TCOON,ioos:station:TCOON:518:1,2016-08-06T05:12:00Z,29.5150,-94.5133,1.475,1111122 
TCOON,ioos:station:TCOON:518:1,2016-08-06T06:18:00Z,29.5150,-94.5133,1.43,1111122 
TCOON,ioos:station:TCOON:518:1,2016-08-06T07:18:00Z,29.5150,-94.5133,1.404,1111122 
TCOON,ioos:station:TCOON:518:1,2016-08-06T08:18:00Z,29.5150,-94.5133,1.389,1111122 
TCOON,ioos:station:TCOON:518:1,2016-08-06T09:18:00Z,29.5150,-94.5133,1.39,1111122 
TCOON,ioos:station:TCOON:518:1,2016-08-06T10:18:00Z,29.5150,-94.5133,1.401,1111122 
TCOON,ioos:station:TCOON:518:1,2016-08-06T11:18:00Z,29.5150,-94.5133,1.453,1111122 
TCOON,ioos:station:TCOON:518:1,2016-08-06T12:18:00Z,29.5150,-94.5133,1.501,1111122 
TCOON,ioos:station:TCOON:518:1,2016-08-06T13:18:00Z,29.5150,-94.5133,1.566,1111122 
TCOON,ioos:station:TCOON:518:1,2016-08-06T14:18:00Z,29.5150,-94.5133,1.599,1111122 
TCOON,ioos:station:TCOON:518:1,2016-08-06T15:18:00Z,29.5150,-94.5133,1.626,1111122 
TCOON,ioos:station:TCOON:518:1,2016-08-06T16:18:00Z,29.5150,-94.5133,1.613,1111122 
TCOON,ioos:station:TCOON:518:1,2016-08-06T17:18:00Z,29.5150,-94.5133,1.586,1111122 
TCOON,ioos:station:TCOON:518:1,2016-08-06T18:18:00Z,29.5150,-94.5133,1.552,1111122 
TCOON,ioos:station:TCOON:518:1,2016-08-06T19:18:00Z,29.5150,-94.5133,1.548,1111122 
TCOON,ioos:station:TCOON:518:1,2016-08-06T20:18:00Z,29.5150,-94.5133,1.509,1111122 
TCOON,ioos:station:TCOON:518:1,2016-08-06T21:18:00Z,29.5150,-94.5133,1.501,1111122 
TCOON,ioos:station:TCOON:518:1,2016-08-06T22:18:00Z,29.5150,-94.5133,1.478,1111122 
TCOON,ioos:station:TCOON:518:1,2016-08-06T23:18:00Z,29.5150,-94.5133,1.469,1111122 
TCOON,ioos:station:TCOON:518:1,2016-08-07T00:18:00Z,29.5150,-94.5133,1.483,1111122 
TCOON,ioos:station:TCOON:518:1,2016-08-07T01:18:00Z,29.5150,-94.5133,1.531,1111122 
TCOON,ioos:station:TCOON:518:1,2016-08-07T02:18:00Z,29.5150,-94.5133,1.566,1111122 
TCOON,ioos:station:TCOON:518:1,2016-08-07T03:18:00Z,29.5150,-94.5133,1.573,1111122 
TCOON,ioos:station:TCOON:518:1,2016-08-07T04:18:00Z,29.5150,-94.5133,1.555,1111122 
TCOON,ioos:station:TCOON:518:1,2016-08-07T05:18:00Z,29.5150,-94.5133,1.513,1111122 
TCOON,ioos:station:TCOON:518:1,2016-08-07T06:18:00Z,29.5150,-94.5133,1.482,1111122 
TCOON,ioos:station:TCOON:518:1,2016-08-07T07:18:00Z,29.5150,-94.5133,1.467,1111122 
TCOON,ioos:station:TCOON:518:1,2016-08-07T08:18:00Z,29.5150,-94.5133,1.49,1111122 
TCOON,ioos:station:TCOON:518:1,2016-08-07T09:12:00Z,29.5150,-94.5133,1.468,1111122 
TCOON,ioos:station:TCOON:518:1,2016-08-07T10:18:00Z,29.5150,-94.5133,1.429,1111122 
TCOON,ioos:station:TCOON:518:1,2016-08-07T11:18:00Z,29.5150,-94.5133,1.448,1111122 
TCOON,ioos:station:TCOON:518:1,2016-08-07T12:12:00Z,29.5150,-94.5133,1.471,1111122 
TCOON,ioos:station:TCOON:518:1,2016-08-07T13:18:00Z,29.5150,-94.5133,1.519,1111122 
TCOON,ioos:station:TCOON:518:1,2016-08-07T14:18:00Z,29.5150,-94.5133,1.551,1111122 
TCOON,ioos:station:TCOON:518:1,2016-08-07T15:18:00Z,29.5150,-94.5133,1.584,1111122 
TCOON,ioos:station:TCOON:518:1,2016-08-07T16:12:00Z,29.5150,-94.5133,1.605,1111122 
TCOON,ioos:station:TCOON:518:1,2016-08-07T17:18:00Z,29.5150,-94.5133,1.585,1111122 
TCOON,ioos:station:TCOON:518:1,2016-08-07T18:18:00Z,29.5150,-94.5133,1.547,1111122 
TCOON,ioos:station:TCOON:518:1,2016-08-07T19:18:00Z,29.5150,-94.5133,1.492,1111122 
TCOON,ioos:station:TCOON:518:1,2016-08-07T20:18:00Z,29.5150,-94.5133,1.476,1111122 
TCOON,ioos:station:TCOON:518:1,2016-08-07T21:18:00Z,29.5150,-94.5133,1.447,1111122 
TCOON,ioos:station:TCOON:518:1,2016-08-07T22:18:00Z,29.5150,-94.5133,1.4,1111122 
TCOON,ioos:station:TCOON:518:1,2016-08-07T23:18:00Z,29.5150,-94.5133,1.38,1111122 
TCOON,ioos:station:TCOON:518:1,2016-08-08T00:18:00Z,29.5150,-94.5133,1.411,1111122 
TCOON,ioos:station:TCOON:518:1,2016-08-08T01:18:00Z,29.5150,-94.5133,1.427,1111122 
TCOON,ioos:station:TCOON:518:1,2016-08-08T02:18:00Z,29.5150,-94.5133,1.507,1111122 
TCOON,ioos:station:TCOON:518:1,2016-08-08T03:18:00Z,29.5150,-94.5133,1.517,1111122 
TCOON,ioos:station:TCOON:518:1,2016-08-08T04:18:00Z,29.5150,-94.5133,1.539,1111122 
TCOON,ioos:station:TCOON:518:1,2016-08-08T05:18:00Z,29.5150,-94.5133,1.532,1111122 
TCOON,ioos:station:TCOON:518:1,2016-08-08T06:18:00Z,29.5150,-94.5133,1.527,1111122 
TCOON,ioos:station:TCOON:518:1,2016-08-08T07:18:00Z,29.5150,-94.5133,1.496,1111122 
TCOON,ioos:station:TCOON:518:1,2016-08-08T08:18:00Z,29.5150,-94.5133,1.512,1111122 
TCOON,ioos:station:TCOON:518:1,2016-08-08T09:18:00Z,29.5150,-94.5133,1.501,1111122 
TCOON,ioos:station:TCOON:518:1,2016-08-08T10:18:00Z,29.5150,-94.5133,1.456,1111122 
TCOON,ioos:station:TCOON:518:1,2016-08-08T11:18:00Z,29.5150,-94.5133,1.445,1111122 
TCOON,ioos:station:TCOON:518:1,2016-08-08T12:18:00Z,29.5150,-94.5133,1.482,1111122 
TCOON,ioos:station:TCOON:518:1,2016-08-08T13:18:00Z,29.5150,-94.5133,1.511,1111122 
TCOON,ioos:station:TCOON:518:1,2016-08-08T14:18:00Z,29.5150,-94.5133,1.567,1111122 
TCOON,ioos:station:TCOON:518:1,2016-08-08T15:18:00Z,29.5150,-94.5133,1.577,1111122 
TCOON,ioos:station:TCOON:518:1,2016-08-08T16:18:00Z,29.5150,-94.5133,1.565,1111122 
TCOON,ioos:station:TCOON:518:1,2016-08-08T17:18:00Z,29.5150,-94.5133,1.52,1111122 
TCOON,ioos:station:TCOON:518:1,2016-08-08T18:18:00Z,29.5150,-94.5133,1.535,1111122 
TCOON,ioos:station:TCOON:518:1,2016-08-08T19:18:00Z,29.5150,-94.5133,1.504,1111122 
TCOON,ioos:station:TCOON:518:1,2016-08-08T20:18:00Z,29.5150,-94.5133,1.463,1111122 
TCOON,ioos:station:TCOON:518:1,2016-08-08T21:18:00Z,29.5150,-94.5133,1.408,1111122 
TCOON,ioos:station:TCOON:518:1,2016-08-08T22:18:00Z,29.5150,-94.5133,1.36,1111122 
TCOON,ioos:station:TCOON:518:1,2016-08-08T23:18:00Z,29.5150,-94.5133,1.333,1111122 
TCOON,ioos:station:TCOON:518:1,2016-08-09T00:18:00Z,29.5150,-94.5133,1.307,1111122 
TCOON,ioos:station:TCOON:518:1,2016-08-09T01:18:00Z,29.5150,-94.5133,1.309,1111122 
TCOON,ioos:station:TCOON:518:1,2016-08-09T02:12:00Z,29.5150,-94.5133,1.341,1111122 
TCOON,ioos:station:TCOON:518:1,2016-08-09T03:18:00Z,29.5150,-94.5133,1.437,1111122 
TCOON,ioos:station:TCOON:518:1,2016-08-09T04:18:00Z,29.5150,-94.5133,1.492,1111122 
TCOON,ioos:station:TCOON:518:1,2016-08-09T05:18:00Z,29.5150,-94.5133,1.497,1111122 
TCOON,ioos:station:TCOON:518:1,2016-08-09T06:18:00Z,29.5150,-94.5133,1.525,1111122 
TCOON,ioos:station:TCOON:518:1,2016-08-09T07:18:00Z,29.5150,-94.5133,1.553,1111122 
TCOON,ioos:station:TCOON:518:1,2016-08-09T08:18:00Z,29.5150,-94.5133,1.548,1111122 
TCOON,ioos:station:TCOON:518:1,2016-08-09T09:18:00Z,29.5150,-94.5133,1.548,1111122 
TCOON,ioos:station:TCOON:518:1,2016-08-09T10:18:00Z,29.5150,-94.5133,1.536,1111122 
TCOON,ioos:station:TCOON:518:1,2016-08-09T11:18:00Z,29.5150,-94.5133,1.538,1111122 
TCOON,ioos:station:TCOON:518:1,2016-08-09T12:18:00Z,29.5150,-94.5133,1.542,1111122 
TCOON,ioos:station:TCOON:518:1,2016-08-09T13:18:00Z,29.5150,-94.5133,1.53,1111122 
TCOON,ioos:station:TCOON:518:1,2016-08-09T14:18:00Z,29.5150,-94.5133,1.56,1111122 
TCOON,ioos:station:TCOON:518:1,2016-08-09T15:18:00Z,29.5150,-94.5133,1.576,1111122 
TCOON,ioos:station:TCOON:518:1,2016-08-09T16:18:00Z,29.5150,-94.5133,1.564,1111122 
TCOON,ioos:station:TCOON:518:1,2016-08-09T17:18:00Z,29.5150,-94.5133,1.547,1111122 
TCOON,ioos:station:TCOON:518:1,2016-08-09T18:18:00Z,29.5150,-94.5133,1.514,1111122 
TCOON,ioos:station:TCOON:518:1,2016-08-09T19:18:00Z,29.5150,-94.5133,1.457,1111122 
TCOON,ioos:station:TCOON:518:1,2016-08-09T20:18:00Z,29.5150,-94.5133,1.408,1111122 
TCOON,ioos:station:TCOON:518:1,2016-08-09T21:18:00Z,29.5150,-94.5133,1.336,1111122 
TCOON,ioos:station:TCOON:518:1,2016-08-09T22:18:00Z,29.5150,-94.5133,1.274,1111122 
TCOON,ioos:station:TCOON:518:1,2016-08-09T23:18:00Z,29.5150,-94.5133,1.262,1111122 
TCOON,ioos:station:TCOON:518:1,2016-08-10T00:18:00Z,29.5150,-94.5133,1.263,1111122 
TCOON,ioos:station:TCOON:518:1,2016-08-10T01:18:00Z,29.5150,-94.5133,1.273,1111122 
TCOON,ioos:station:TCOON:518:1,2016-08-10T02:18:00Z,29.5150,-94.5133,1.327,1111122 
TCOON,ioos:station:TCOON:518:1,2016-08-10T03:18:00Z,29.5150,-94.5133,1.379,1111122 
TCOON,ioos:station:TCOON:518:1,2016-08-10T04:18:00Z,29.5150,-94.5133,1.433,1111122 
TCOON,ioos:station:TCOON:518:1,2016-08-10T05:18:00Z,29.5150,-94.5133,1.459,1111122 
TCOON,ioos:station:TCOON:518:1,2016-08-10T06:54:00Z,29.5150,-94.5133,1.493,1111122 
TCOON,ioos:station:TCOON:518:1,2016-08-10T07:18:00Z,29.5150,-94.5133,1.51,1111122 
TCOON,ioos:station:TCOON:518:1,2016-08-10T08:18:00Z,29.5150,-94.5133,1.519,1111122 
TCOON,ioos:station:TCOON:518:1,2016-08-10T09:18:00Z,29.5150,-94.5133,1.553,1111122 
TCOON,ioos:station:TCOON:518:1,2016-08-10T10:18:00Z,29.5150,-94.5133,1.596,1111122 
TCOON,ioos:station:TCOON:518:1,2016-08-10T11:18:00Z,29.5150,-94.5133,1.604,1111122 
TCOON,ioos:station:TCOON:518:1,2016-08-10T12:18:00Z,29.5150,-94.5133,1.596,1111122 
TCOON,ioos:station:TCOON:518:1,2016-08-10T13:18:00Z,29.5150,-94.5133,1.573,1111122 
TCOON,ioos:station:TCOON:518:1,2016-08-10T14:18:00Z,29.5150,-94.5133,1.554,1111122 
TCOON,ioos:station:TCOON:518:1,2016-08-10T15:18:00Z,29.5150,-94.5133,1.553,1111122 
TCOON,ioos:station:TCOON:518:1,2016-08-10T16:18:00Z,29.5150,-94.5133,1.531,1111122 
TCOON,ioos:station:TCOON:518:1,2016-08-10T17:18:00Z,29.5150,-94.5133,1.486,1111122 
TCOON,ioos:station:TCOON:518:1,2016-08-10T18:18:00Z,29.5150,-94.5133,1.423,1111122 
TCOON,ioos:station:TCOON:518:1,2016-08-10T19:18:00Z,29.5150,-94.5133,1.337,1111122 
TCOON,ioos:station:TCOON:518:1,2016-08-10T20:18:00Z,29.5150,-94.5133,1.293,1111122 
TCOON,ioos:station:TCOON:518:1,2016-08-10T21:18:00Z,29.5150,-94.5133,1.249,1111122 
TCOON,ioos:station:TCOON:518:1,2016-08-10T22:18:00Z,29.5150,-94.5133,1.228,1111122 
TCOON,ioos:station:TCOON:518:1,2016-08-10T23:18:00Z,29.5150,-94.5133,1.181,1111122 
TCOON,ioos:station:TCOON:518:1,2016-08-11T00:18:00Z,29.5150,-94.5133,1.162,1111122 
TCOON,ioos:station:TCOON:518:1,2016-08-11T01:18:00Z,29.5150,-94.5133,1.176,1111122 
TCOON,ioos:station:TCOON:518:1,2016-08-11T02:18:00Z,29.5150,-94.5133,1.206,1111122 
TCOON,ioos:station:TCOON:518:1,2016-08-11T03:18:00Z,29.5150,-94.5133,1.258,1111122 
TCOON,ioos:station:TCOON:518:1,2016-08-11T04:18:00Z,29.5150,-94.5133,1.3,1111122 
TCOON,ioos:station:TCOON:518:1,2016-08-11T05:18:00Z,29.5150,-94.5133,1.376,1111122 
TCOON,ioos:station:TCOON:518:1,2016-08-11T06:18:00Z,29.5150,-94.5133,1.433,1111122 
TCOON,ioos:station:TCOON:518:1,2016-08-11T07:18:00Z,29.5150,-94.5133,1.456,1111122 
TCOON,ioos:station:TCOON:518:1,2016-08-11T08:18:00Z,29.5150,-94.5133,1.498,1111122 
TCOON,ioos:station:TCOON:518:1,2016-08-11T09:18:00Z,29.5150,-94.5133,1.553,1111122 
TCOON,ioos:station:TCOON:518:1,2016-08-11T10:18:00Z,29.5150,-94.5133,1.572,1111122 
TCOON,ioos:station:TCOON:518:1,2016-08-11T11:18:00Z,29.5150,-94.5133,1.549,1111122 
TCOON,ioos:station:TCOON:518:1,2016-08-11T12:18:00Z,29.5150,-94.5133,1.535,1111122 
TCOON,ioos:station:TCOON:518:1,2016-08-11T13:18:00Z,29.5150,-94.5133,1.561,1111122 
TCOON,ioos:station:TCOON:518:1,2016-08-11T14:18:00Z,29.5150,-94.5133,1.539,1111122 
TCOON,ioos:station:TCOON:518:1,2016-08-11T15:18:00Z,29.5150,-94.5133,1.478,1111122 
TCOON,ioos:station:TCOON:518:1,2016-08-11T16:18:00Z,29.5150,-94.5133,1.461,1111122 
TCOON,ioos:station:TCOON:518:1,2016-08-11T17:18:00Z,29.5150,-94.5133,1.454,1111122 
TCOON,ioos:station:TCOON:518:1,2016-08-11T18:12:00Z,29.5150,-94.5133,1.405,1111122 
TCOON,ioos:station:TCOON:518:1,2016-08-11T19:18:00Z,29.5150,-94.5133,1.353,1111122 
TCOON,ioos:station:TCOON:518:1,2016-08-11T20:18:00Z,29.5150,-94.5133,1.273,1111122 
TCOON,ioos:station:TCOON:518:1,2016-08-11T21:18:00Z,29.5150,-94.5133,1.231,1111122 
TCOON,ioos:station:TCOON:518:1,2016-08-11T22:18:00Z,29.5150,-94.5133,1.213,1111122 
TCOON,ioos:station:TCOON:518:1,2016-08-11T23:18:00Z,29.5150,-94.5133,1.204,1111122 
TCOON,ioos:station:TCOON:518:1,2016-08-12T00:36:00Z,29.5150,-94.5133,1.148,1111122 
TCOON,ioos:station:TCOON:518:1,2016-08-12T01:24:00Z,29.5150,-94.5133,1.145,1111122 
TCOON,ioos:station:TCOON:518:1,2016-08-12T02:18:00Z,29.5150,-94.5133,1.21,1111122 
TCOON,ioos:station:TCOON:518:1,2016-08-12T03:18:00Z,29.5150,-94.5133,1.269,1111122 
TCOON,ioos:station:TCOON:518:1,2016-08-12T04:18:00Z,29.5150,-94.5133,1.312,1111122 
TCOON,ioos:station:TCOON:518:1,2016-08-12T05:18:00Z,29.5150,-94.5133,1.346,1111122 
TCOON,ioos:station:TCOON:518:1,2016-08-12T06:12:00Z,29.5150,-94.5133,1.416,1111122 
TCOON,ioos:station:TCOON:518:1,2016-08-12T07:18:00Z,29.5150,-94.5133,1.498,1111122 
TCOON,ioos:station:TCOON:518:1,2016-08-12T08:18:00Z,29.5150,-94.5133,1.546,1111122 
TCOON,ioos:station:TCOON:518:1,2016-08-12T09:18:00Z,29.5150,-94.5133,1.592,1111122 
TCOON,ioos:station:TCOON:518:1,2016-08-12T10:18:00Z,29.5150,-94.5133,1.588,1111122 
TCOON,ioos:station:TCOON:518:1,2016-08-12T11:18:00Z,29.5150,-94.5133,1.592,1111122 
TCOON,ioos:station:TCOON:518:1,2016-08-12T12:18:00Z,29.5150,-94.5133,1.57,1111122 
TCOON,ioos:station:TCOON:518:1,2016-08-12T13:18:00Z,29.5150,-94.5133,1.529,1111122 
TCOON,ioos:station:TCOON:518:1,2016-08-12T14:18:00Z,29.5150,-94.5133,1.494,1111122 
TCOON,ioos:station:TCOON:518:1,2016-08-12T15:18:00Z,29.5150,-94.5133,1.482,1111122 
TCOON,ioos:station:TCOON:518:1,2016-08-12T16:18:00Z,29.5150,-94.5133,1.447,1111122 
TCOON,ioos:station:TCOON:518:1,2016-08-12T17:18:00Z,29.5150,-94.5133,1.415,1111122 
TCOON,ioos:station:TCOON:518:1,2016-08-12T18:18:00Z,29.5150,-94.5133,1.379,1111122 
TCOON,ioos:station:TCOON:518:1,2016-08-12T19:18:00Z,29.5150,-94.5133,1.372,1111122 
TCOON,ioos:station:TCOON:518:1,2016-08-12T20:18:00Z,29.5150,-94.5133,1.369,1111122 
TCOON,ioos:station:TCOON:518:1,2016-08-12T21:18:00Z,29.5150,-94.5133,1.344,1111122 
TCOON,ioos:station:TCOON:518:1,2016-08-12T22:18:00Z,29.5150,-94.5133,1.299,1111122 
TCOON,ioos:station:TCOON:518:1,2016-08-12T23:18:00Z,29.5150,-94.5133,1.245,1111122 
TCOON,ioos:station:TCOON:518:1,2016-08-13T00:18:00Z,29.5150,-94.5133,1.228,1111122 
TCOON,ioos:station:TCOON:518:1,2016-08-13T01:18:00Z,29.5150,-94.5133,1.207,1111122 
TCOON,ioos:station:TCOON:518:1,2016-08-13T02:18:00Z,29.5150,-94.5133,1.165,1111122 
TCOON,ioos:station:TCOON:518:1,2016-08-13T03:18:00Z,29.5150,-94.5133,1.147,1111122 
TCOON,ioos:station:TCOON:518:1,2016-08-13T04:18:00Z,29.5150,-94.5133,1.185,1111122 
TCOON,ioos:station:TCOON:518:1,2016-08-13T05:18:00Z,29.5150,-94.5133,1.216,1111122 
TCOON,ioos:station:TCOON:518:1,2016-08-13T06:18:00Z,29.5150,-94.5133,1.304,1111122 
TCOON,ioos:station:TCOON:518:1,2016-08-13T07:18:00Z,29.5150,-94.5133,1.379,1111122 
TCOON,ioos:station:TCOON:518:1,2016-08-13T08:18:00Z,29.5150,-94.5133,1.434,1111122 
TCOON,ioos:station:TCOON:518:1,2016-08-13T09:12:00Z,29.5150,-94.5133,1.472,1111122 
TCOON,ioos:station:TCOON:518:1,2016-08-13T10:18:00Z,29.5150,-94.5133,1.529,1111122 
TCOON,ioos:station:TCOON:518:1,2016-08-13T11:18:00Z,29.5150,-94.5133,1.567,1111122 
TCOON,ioos:station:TCOON:518:1,2016-08-13T12:18:00Z,29.5150,-94.5133,1.547,1111122 
TCOON,ioos:station:TCOON:518:1,2016-08-13T13:18:00Z,29.5150,-94.5133,1.497,1111122 
TCOON,ioos:station:TCOON:518:1,2016-08-13T14:18:00Z,29.5150,-94.5133,1.48,1111122 
TCOON,ioos:station:TCOON:518:1,2016-08-13T15:18:00Z,29.5150,-94.5133,1.511,1111122 
TCOON,ioos:station:TCOON:518:1,2016-08-13T16:18:00Z,29.5150,-94.5133,1.532,1111122 
TCOON,ioos:station:TCOON:518:1,2016-08-13T17:18:00Z,29.5150,-94.5133,1.497,1111122 
TCOON,ioos:station:TCOON:518:1,2016-08-13T18:18:00Z,29.5150,-94.5133,1.459,1111122 
TCOON,ioos:station:TCOON:518:1,2016-08-13T19:18:00Z,29.5150,-94.5133,1.358,1111122 
TCOON,ioos:station:TCOON:518:1,2016-08-13T20:18:00Z,29.5150,-94.5133,1.372,1111122 
TCOON,ioos:station:TCOON:518:1,2016-08-13T21:18:00Z,29.5150,-94.5133,1.409,1111122 
TCOON,ioos:station:TCOON:518:1,2016-08-13T22:18:00Z,29.5150,-94.5133,1.435,1111122 
TCOON,ioos:station:TCOON:518:1,2016-08-13T23:18:00Z,29.5150,-94.5133,1.387,1111122 
TCOON,ioos:station:TCOON:518:1,2016-08-14T00:18:00Z,29.5150,-94.5133,1.329,1111122 
TCOON,ioos:station:TCOON:518:1,2016-08-14T01:18:00Z,29.5150,-94.5133,1.281,1111122 
TCOON,ioos:station:TCOON:518:1,2016-08-14T02:18:00Z,29.5150,-94.5133,1.369,1111122 
TCOON,ioos:station:TCOON:518:1,2016-08-14T03:18:00Z,29.5150,-94.5133,1.342,1111122 
TCOON,ioos:station:TCOON:518:1,2016-08-14T04:18:00Z,29.5150,-94.5133,1.421,1111122 
TCOON,ioos:station:TCOON:518:1,2016-08-14T05:18:00Z,29.5150,-94.5133,1.396,1111122 
TCOON,ioos:station:TCOON:518:1,2016-08-14T06:18:00Z,29.5150,-94.5133,1.244,1111122 
TCOON,ioos:station:TCOON:518:1,2016-08-14T07:18:00Z,29.5150,-94.5133,1.215,1111122 
TCOON,ioos:station:TCOON:518:1,2016-08-14T08:18:00Z,29.5150,-94.5133,1.211,1111122 
TCOON,ioos:station:TCOON:518:1,2016-08-14T09:18:00Z,29.5150,-94.5133,1.315,1111122 
TCOON,ioos:station:TCOON:518:1,2016-08-14T10:18:00Z,29.5150,-94.5133,1.426,1111122 
TCOON,ioos:station:TCOON:518:1,2016-08-14T11:18:00Z,29.5150,-94.5133,1.481,1111122 
TCOON,ioos:station:TCOON:518:1,2016-08-14T12:18:00Z,29.5150,-94.5133,1.523,1111122 
TCOON,ioos:station:TCOON:518:1,2016-08-14T13:18:00Z,29.5150,-94.5133,1.658,1111122 
TCOON,ioos:station:TCOON:518:1,2016-08-14T14:18:00Z,29.5150,-94.5133,1.577,1111122 
TCOON,ioos:station:TCOON:518:1,2016-08-14T15:18:00Z,29.5150,-94.5133,1.666,1111122 
TCOON,ioos:station:TCOON:518:1,2016-08-14T16:18:00Z,29.5150,-94.5133,1.604,1111122 
TCOON,ioos:station:TCOON:518:1,2016-08-14T17:18:00Z,29.5150,-94.5133,1.596,1111122 
TCOON,ioos:station:TCOON:518:1,2016-08-14T18:18:00Z,29.5150,-94.5133,1.648,1111122 
TCOON,ioos:station:TCOON:518:1,2016-08-14T19:18:00Z,29.5150,-94.5133,1.584,1111122 
TCOON,ioos:station:TCOON:518:1,2016-08-14T20:18:00Z,29.5150,-94.5133,1.446,1111122 